Regional Weather Roundup
Issued by NWS

Home | Current Version | Previous Version | Text Only | Print | Product List | Glossary Off
Versions: 1 2 3 4 5 6 7 8 9 10 11 12 13 14 15 16 17 18 19 20 21 22 23 24 25 26 27 28 29 30 31 32 33 34 35 36 37 38 39 40 41 42 43 44 45 46 47 48 49 50

000
ASUS45 KTFX 190319
RWRMT
MONTANA HOURLY WEATHER ROUNDUP
NATIONAL WEATHER SERVICE GREAT FALLS MT
919 PM MDT FRI APR 18 2014

NOTE: "FAIR" INDICATES FEW OR NO CLOUDS BELOW 12000 FEET WITH NO
SIGNIFICANT WEATHER AND/OR OBSTRUCTIONS TO VISIBILITY.

* THESE STATIONS ARE NOT UNDER NWS QUALITY CONTROL. THEY DO NOT
   REPORT WEATHER SUCH AS PRECIPITATION OR FOG.

MTZ001>007-043-190400-
WEST OF THE DIVIDE
CITY           SKY/WX    TMP DP  RH WIND       PRES   REMARKS
KALISPELL      CLOUDY    43  28  56 S7        29.96R
MISSOULA       PTCLDY    43  21  42 N9        30.01R
BUTTE          MOCLDY    39   7  26 W10G17    29.96R WCI  32
MULLAN PASS    PTCLDY    27  21  78 SW9       29.95S WCI  18
* ESSEX        N/A       33  32  96 E2G8       N/A
* LINCOLN      N/A       40  14  35 W7G22      N/A   WCI  35
* LOOKOUT PASS N/A       34  26  73 SE2        N/A
* POLSON       N/A       41  22  47 SW3G8      N/A
* SEELEY LAKE  N/A       39  21  48 N3G15      N/A
* THOMP F APT  PTCLDY    44   8  23 N6G18      N/A
$$

MTZ008-052>055-190400-
SOUTHWEST MONTANA
CITY           SKY/WX    TMP DP  RH WIND       PRES   REMARKS
BOZEMAN        PTCLDY    41  10  28 W10       29.95R
DILLON         CLOUDY    41   7  24 NW9G22    29.96R
W YELLOWSTONE  N/A       34  33  96 SW2G15     N/A
* THREE FORKS  PTCLDY    45  12  26 SW5        N/A
* BOULDER HILL N/A       38   5  25 S8         N/A   WCI  32
* MONIDA PASS  N/A       35  14  42 N8G16      N/A   WCI  28
* RAYNOLDS PAS N/A       36 -16  10 VRB12      N/A   WCI  28
* WHITEHALL    N/A       45   7  21 W9G24      N/A
* WISE RIVER   N/A       38  11  33 NW10G26    N/A   WCI  31
$$

MTZ009>010-012-014-046-048-049-054-190400-
EAST SLOPES AND CENTRAL MONTANA
CITY           SKY/WX    TMP DP  RH WIND       PRES   REMARKS
CUT BANK       PTCLDY    37  27  67 W25G33    29.75R WCI  25
GREAT FALLS    CLEAR     41  18  39 SW16G25   29.82R
HELENA         PTCLDY    46  10  23 VRB3      29.91R
MALMSTROM AFB  PTCLDY    45  16  31 SW15      29.80R
* CONRAD       CLEAR     41  21  45 SW21G26    N/A
* DEARBORN     N/A       47  14  26 S13G24     N/A
* EAST GLACIER N/A       33  26  75 W16G24     N/A   WCI  23
* MONARCH      N/A       37   7  28 W17G27     N/A   WCI  27
* PENDROY      N/A       39  17  41 W29G39     N/A   WCI  27
* ROGERS PASS  N/A       35  13  40 E17G35     N/A   WCI  25
* SAINT MARY   N/A       34  26  73 SW11G24    N/A   WCI  26
* SWEET GRASS  N/A       39  34  82 NW17G37    N/A   WCI  30
* WHITE SULPH  N/A       38  10  31 NW10G19    N/A   WCI  31
$$

MTZ011-013-016-021-035-040-045-047-050-051-190400-
NORTH CENTRAL MONTANA
CITY           SKY/WX    TMP DP  RH WIND       PRES   REMARKS
HAVRE          CLOUDY    48  23  37 W26G36    29.73R
LEWISTOWN      CLEAR     37  18  46 W17       29.83R WCI  27
* CHINOOK      PTCLDY    48  21  34 W21G31    29.73R
* FORT BENTON  PTCLDY    45  18  34 SW18G24   29.81R
* MALTA APT    PTCLDY    48  21  34 W15G24    29.70R
* CHESTER      N/A       44  22  42 W20G33     N/A
* DENTON       N/A       42  13  31 W17        N/A
* GEYSER       N/A       39  10  30 W12        N/A   WCI  32
* JUDITH GAP   N/A       40  10  29 W27G34     N/A   WCI  29
* LOMA         N/A       48  17  29 SW15G21    N/A
$$

MTZ017>020-022>027-061-062-190400-
NORTHEAST MONTANA
CITY           SKY/WX    TMP DP  RH WIND       PRES   REMARKS
GLASGOW        CLOUDY    39  37  93 SW6       29.70F WCI  35
GLENDIVE       MOCLDY    45  36  71 W28G38    29.79R
JORDAN         CLOUDY    43  37  79 SW7       29.78R
SIDNEY         CLEAR     43  39  86 SW7       29.72R
WOLF POINT     LGT RAIN  43  37  79 NW21G28   29.74R
* BEAVER HILL  N/A       42  41  96 SW8        N/A
* CIRCLE       N/A       42  38  86 W4         N/A
* LINDSAY DVD  N/A       41  36  82 NW24G29    N/A
* NAVAJO       N/A       41  40  96 W8         N/A
* SACO         N/A       42  31  65 SW12       N/A
* SCOBEY APT   MOCLDY    39  34  82 W16G24    29.68R WCI  30
$$

MTZ028>042-056>058-190400-
SOUTHCENTRAL AND SOUTHEAST MONTANA
CITY           SKY/WX    TMP DP  RH WIND       PRES   REMARKS
BAKER          MOCLDY    43  39  86 W10       29.73R
BILLINGS       MOCLDY    46  19  34 W21G29    29.85R
LIVINGSTON     PTCLDY    43  12  28 SW17      29.92R
MILES CITY     LGT RAIN  45 N/A N/A NW17G36   29.81R
* EKALAKA APT  MOCLDY    45  36  71 N5        29.77R
* LAUREL APT   MOCLDY    48  16  28 W9         N/A
* ROUNDUP APT  PTCLDY    46  12  25 W22G30     N/A
* HYSHAM       N/A       46  25  44 W9         N/A
* REED POINT   N/A       47  18  31 W12G19     N/A
* ROSCOE HILL  N/A       38  24  57 W6G22      N/A   WCI  33
$$

REGIONAL REPORTS...DAKOTAS
CITY           SKY/WX    TMP DP  RH WIND       PRES   REMARKS
WILLISTON      FOG       36  36 100 CALM      29.67R VSB 3/4
DICKINSON      CLOUDY    48  39  71 N14       29.65R
CROSBY         CLEAR     43  43 100 S13       29.67R
TIOGA          MOCLDY    43  43 100 SE17G23   29.69F
WATFORD CITY   CLEAR     39  39 100 CALM      29.66R
BISMARCK       CLOUDY    50  39  66 NE14      29.59F
GRAND FORKS    CLOUDY    45  27  49 SE29G40   29.92F
FARGO          CLOUDY    45  28  51 SE29G44   29.92F
BUFFALO SD     CLOUDY    50  41  71 N14       29.64R
RAPID CITY     MOCLDY    59  37  44 N22G29    29.65R
$$

REGIONAL REPORTS...WYOMING/IDAHO/WASHINGTON
CITY           SKY/WX    TMP DP  RH WIND       PRES   REMARKS
GILLETTE       CLOUDY    46  37  71 NE3       29.78R
SHERIDAN       PTCLDY    46  30  54 NW18G36   29.86R
CODY           CLOUDY    54  21  27 W8        29.86R
YELLOWSTONE LA PTCLDY    34  21  59 VRB5      29.98R WCI  29
SALMON         MOCLDY    46   9  22 NW3       29.98R
MULLAN PASS    PTCLDY    27  21  78 SW9       29.95S WCI  18
SAND POINT     CLOUDY    45  36  71 N3        29.95R
SPOKANE        PTCLDY    48  21  34 S9        29.96R
$$

REGIONAL REPORTS...ALBERTA
CITY           SKY/WX    TMP DP  RH WIND       PRES   REMARKS
CALGARY        MOCLDY    36  30  79 NW13      29.77R WCI  27
LETHBRIDGE     LGT SNOW  32  32 100 W9G18     29.79R VSB 2    WCI  24
MEDICINE HAT   CLOUDY    41  37  86 W24G32    29.66R
EDMONTON       CLOUDY    34  28  79 N7        29.80R WCI  28
WATERTON GATE  N/A       37  27  67 SW22G35    N/A   WCI  26
CARDSTON       N/A       41  27  58 W16G23     N/A
MILK RIVER     N/A       36  32  85 NW21G26    N/A   WCI  25
$$

REGIONAL REPORTS...SASKATCHEWAN
CITY           SKY/WX    TMP DP  RH WIND       PRES   REMARKS
SWIFT CURRENT  LGT RAIN  43  39  86 SW9       29.58R
REGINA         LGT RAIN  37  36  96 SE10      29.66R WCI  30
VAL MARIE      N/A       45  21  38 W15        N/A
ASSINIBOIA     N/A       43  39  86 S8         N/A
CORONACH       N/A       41  36  82 W22G31     N/A

$$




USA.gov is the U.S. government's official web portal to all federal, state and local government web resources and services.